Location: Unspecified
(0.0000°N, 0.0000°E)
Time: 09:18:09
(UTC+00:00)

Vanguard 2 Rocket - Visible Passes

Search period start: 18 June 2018 00:00
Search period end: 28 June 2018 00:00
Orbit: 553 x 3327 km, 32.9° (Epoch: 16 June)

Date Brightness Start Highest point End Pass type
(mag) Time Alt. Az. Time Alt. Az. Time Alt. Az.
18 Jun 10.0 04:28:53 10° SSW 04:38:29 24° SE 04:51:36 10° E visible
18 Jun 7.9 18:27:49 10° NNW 18:33:03 27° NNE 18:36:51 10° E visible
18 Jun 8.9 20:42:23 10° W 20:43:06 13° W 20:43:06 13° W visible
19 Jun 10.0 03:32:24 12° S 03:37:07 15° SSE 03:44:19 10° ESE visible
19 Jun 6.1 19:41:53 10° WNW 19:47:01 63° SW 19:47:11 63° SSW visible
20 Jun 9.8 04:42:18 10° SSW 04:53:05 34° SE 05:08:51 10° E visible
20 Jun 6.6 18:41:30 10° NW 18:47:50 62° NNE 18:51:16 16° ESE visible
21 Jun 9.7 03:46:13 15° S 03:52:03 22° SE 04:03:09 10° E visible
21 Jun 7.7 19:57:06 10° W 20:01:12 25° SW 20:01:12 25° SW visible
22 Jun 10.1 02:50:14 12° SSE 02:51:13 12° SE 02:55:20 10° SE visible
22 Jun 9.6 04:56:02 10° SSW 05:07:18 48° SE 05:24:59 10° ENE visible
22 Jun 6.8 18:55:56 10° WNW 19:02:15 58° SW 19:05:17 19° SE visible
23 Jun 9.4 04:00:04 20° S 04:06:28 32° SE 04:20:27 10° E visible
23 Jun 8.8 20:14:19 10° SW 20:15:14 11° SW 20:15:14 11° SW visible
24 Jun 9.7 03:04:06 18° SSE 03:05:59 19° SE 03:14:46 10° ESE visible
24 Jun 9.3 05:09:55 10° SW 05:21:23 68° SE 05:40:12 10° ENE visible
24 Jun 8.1 19:11:15 10° W 19:16:25 26° SW 19:19:20 15° S visible
25 Jun 9.1 04:13:58 24° SSW 04:20:35 47° SE 04:36:32 10° ENE visible
26 Jun 9.2 03:18:01 28° SSE 03:20:17 30° SE 03:32:07 10° E visible
26 Jun 9.1 05:24:02 10° SW 05:35:35 89° NW 05:54:45 10° NE visible
26 Jun 8.7 19:28:14 10° WSW 19:30:34 12° SW 19:32:36 10° SSW visible
27 Jun 9.9 02:22:05 16° SE 02:22:05 16° SE 02:26:37 10° ESE visible
27 Jun 8.8 04:27:54 27° SW 04:34:38 68° SE 04:51:43 10° ENE visible
27 Jun 8.5 18:24:48 10° W 18:31:23 28° SW 18:35:50 10° SSE visible
